Zurück zum Katalog

ONEWEB-0531

AktivKommunikationPO
NORAD 54146·PAYLOAD·🇬🇧 United Kingdom

Gestartet Oct 22, 2022 von Satish Dhawan Space Centre

Loading…

Nächste Überflüge (nächste 24 Stunden)

TLE

AktuellSource: CelesTrak SupGP

Epoche: Sep 14, 2026, 13:45 UTC

1 54146C 22138AK  26257.57343009 -.00001330  00000+0 -32760-2 0  2574
2 54146  87.9135 256.6046 0001789 107.0811   3.0210 13.20772994    18

Verfolge ONEWEB-0531 in Echtzeit mit AllMySat

Download on the App Store